Time,TemperatureF,DewpointF,PressureIn,WindDirection,WindDirectionDegrees,WindSpeedMPH,WindSpeedGustMPH,Humidity,HourlyPrecipIn,Conditions,Clouds,dailyrainin,SolarRadiationWatts/m^2,SoftwareType,DateUTC
2013-02-25 00:01:00,49.0,27.0,-100.00,SE,126,4.0,8.0,43,-99.99,,,0.00,0.000000,,2013-02-25 08:01:00,
2013-02-25 00:11:00,49.0,27.0,-100.00,SE,126,4.0,8.0,43,-99.99,,,0.00,0.000000,,2013-02-25 08:11:00,
2013-02-25 00:32:00,43.0,29.0,-100.00,ENE,77,6.0,12.0,57,0.00,,,0.00,0.000000,,2013-02-25 08:32:00,
2013-02-25 00:42:00,43.0,29.0,-100.00,ENE,77,6.0,12.0,57,0.00,,,0.00,0.000000,,2013-02-25 08:42:00,
2013-02-25 00:52:00,43.0,29.0,-100.00,ENE,77,6.0,12.0,57,0.00,,,0.00,0.000000,,2013-02-25 08:52:00,
2013-02-25 01:01:00,43.0,29.0,-100.00,ENE,77,6.0,12.0,57,0.00,,,0.00,0.000000,,2013-02-25 09:01:00,
2013-02-25 01:12:00,43.0,29.0,-100.00,ENE,77,6.0,12.0,57,0.00,,,0.00,0.000000,,2013-02-25 09:12:00,
2013-02-25 01:32:00,45.0,29.0,-100.00,ENE,73,6.0,9.0,54,0.00,,,0.00,0.000000,,2013-02-25 09:32:00,
2013-02-25 01:42:00,45.0,29.0,-100.00,ENE,73,6.0,9.0,54,0.00,,,0.00,0.000000,,2013-02-25 09:42:00,
2013-02-25 01:52:00,45.0,29.0,-100.00,ENE,73,6.0,9.0,54,0.00,,,0.00,0.000000,,2013-02-25 09:52:00,
2013-02-25 02:01:00,45.0,29.0,-100.00,ENE,73,6.0,9.0,54,0.00,,,0.00,0.000000,,2013-02-25 10:01:00,
2013-02-25 02:11:00,45.0,29.0,-100.00,ENE,73,6.0,9.0,54,0.00,,,0.00,0.000000,,2013-02-25 10:11:00,
2013-02-25 02:32:00,44.0,29.0,-100.00,ENE,64,6.0,9.0,56,0.00,,,0.00,0.000000,,2013-02-25 10:32:00,
2013-02-25 02:42:00,44.0,29.0,-100.00,ENE,64,6.0,9.0,56,0.00,,,0.00,0.000000,,2013-02-25 10:42:00,
2013-02-25 02:52:00,44.0,29.0,-100.00,ENE,64,6.0,9.0,56,0.00,,,0.00,0.000000,,2013-02-25 10:52:00,
2013-02-25 03:01:00,44.0,29.0,-100.00,ENE,64,6.0,9.0,56,0.00,,,0.00,0.000000,,2013-02-25 11:01:00,
2013-02-25 03:11:00,44.0,29.0,-100.00,ENE,64,6.0,9.0,56,0.00,,,0.00,0.000000,,2013-02-25 11:11:00,
2013-02-25 03:32:00,44.0,30.0,-100.00,ENE,62,6.0,8.0,57,0.00,,,-99.99,0.000000,,2013-02-25 11:32:00,
2013-02-25 03:42:00,44.0,30.0,-100.00,ENE,62,6.0,8.0,57,0.00,,,-99.99,0.000000,,2013-02-25 11:42:00,
2013-02-25 03:52:00,44.0,30.0,-100.00,ENE,62,6.0,8.0,57,0.00,,,-99.99,0.000000,,2013-02-25 11:52:00,
2013-02-25 04:01:00,44.0,30.0,-100.00,ENE,62,6.0,8.0,57,0.00,,,-99.99,0.000000,,2013-02-25 12:01:00,
2013-02-25 04:11:00,44.0,30.0,-100.00,ENE,62,6.0,8.0,57,0.00,,,-99.99,0.000000,,2013-02-25 12:11:00,
2013-02-25 04:32:00,47.0,30.0,-100.00,ESE,103,7.0,11.0,52,0.00,,,0.00,0.000000,,2013-02-25 12:32:00,
2013-02-25 04:42:00,47.0,30.0,-100.00,ESE,103,7.0,11.0,52,0.00,,,0.00,0.000000,,2013-02-25 12:42:00,
2013-02-25 04:55:00,47.0,30.0,-100.00,ESE,103,7.0,11.0,52,0.00,,,0.00,0.000000,,2013-02-25 12:55:00,
2013-02-25 05:01:00,47.0,30.0,-100.00,ESE,103,7.0,11.0,52,0.00,,,0.00,0.000000,,2013-02-25 13:01:00,
2013-02-25 05:11:00,47.0,30.0,-100.00,ESE,103,7.0,11.0,52,0.00,,,0.00,0.000000,,2013-02-25 13:11:00,
2013-02-25 05:13:00,47.0,30.0,-100.00,ENE,65,5.0,14.0,52,0.00,,,-99.99,0.000000,,2013-02-25 13:13:00,
2013-02-25 05:32:00,47.0,30.0,-100.00,ENE,65,5.0,14.0,52,0.00,,,-99.99,0.000000,,2013-02-25 13:32:00,
2013-02-25 05:42:00,47.0,30.0,-100.00,ENE,65,5.0,14.0,52,0.00,,,-99.99,0.000000,,2013-02-25 13:42:00,
2013-02-25 05:52:00,47.0,30.0,-100.00,ENE,65,5.0,14.0,52,0.00,,,-99.99,0.000000,,2013-02-25 13:52:00,
2013-02-25 06:02:00,47.0,30.0,-100.00,ENE,65,5.0,14.0,52,0.00,,,-99.99,0.000000,,2013-02-25 14:02:00,
2013-02-25 06:32:00,45.0,30.0,-100.00,ENE,70,6.0,12.0,55,0.00,,,0.00,0.000000,,2013-02-25 14:32:00,
2013-02-25 06:42:00,45.0,30.0,-100.00,ENE,70,6.0,12.0,55,0.00,,,0.00,0.000000,,2013-02-25 14:42:00,
2013-02-25 06:52:00,45.0,30.0,-100.00,ENE,70,6.0,12.0,55,0.00,,,0.00,0.000000,,2013-02-25 14:52:00,
2013-02-25 07:02:00,45.0,30.0,-100.00,ENE,70,6.0,12.0,55,0.00,,,0.00,0.000000,,2013-02-25 15:02:00,
2013-02-25 07:11:00,45.0,30.0,-100.00,ENE,70,6.0,12.0,55,0.00,,,0.00,0.000000,,2013-02-25 15:11:00,
2013-02-25 07:32:00,42.0,30.0,-100.00,East,99,5.0,7.0,61,0.00,,,0.00,9.000000,,2013-02-25 15:32:00,
2013-02-25 07:42:00,42.0,30.0,-100.00,East,99,5.0,7.0,61,0.00,,,0.00,9.000000,,2013-02-25 15:42:00,
2013-02-25 07:52:00,42.0,30.0,-100.00,East,99,5.0,7.0,61,0.00,,,0.00,9.000000,,2013-02-25 15:52:00,
2013-02-25 08:01:00,42.0,30.0,-100.00,East,99,5.0,7.0,61,0.00,,,0.00,9.000000,,2013-02-25 16:01:00,
2013-02-25 08:11:00,42.0,30.0,-100.00,East,99,5.0,7.0,61,0.00,,,0.00,9.000000,,2013-02-25 16:11:00,
2013-02-25 08:32:00,49.0,33.0,-100.00,SW,232,1.0,9.0,54,0.00,,,0.00,145.000000,,2013-02-25 16:32:00,
2013-02-25 08:42:00,49.0,33.0,-100.00,SW,232,1.0,9.0,54,0.00,,,0.00,145.000000,,2013-02-25 16:42:00,
2013-02-25 08:52:00,49.0,33.0,-100.00,SW,232,1.0,9.0,54,0.00,,,0.00,145.000000,,2013-02-25 16:52:00,
2013-02-25 09:01:00,49.0,33.0,-100.00,SW,232,1.0,9.0,54,0.00,,,0.00,145.000000,,2013-02-25 17:01:00,
2013-02-25 09:11:00,49.0,33.0,-100.00,SW,232,1.0,9.0,54,0.00,,,0.00,145.000000,,2013-02-25 17:11:00,
2013-02-25 09:32:00,54.0,36.0,-100.00,WSW,251,2.0,5.0,51,0.00,,,0.00,334.000000,,2013-02-25 17:32:00,
2013-02-25 09:42:00,54.0,36.0,-100.00,WSW,251,2.0,5.0,51,0.00,,,0.00,334.000000,,2013-02-25 17:42:00,
2013-02-25 09:52:00,54.0,36.0,-100.00,WSW,251,2.0,5.0,51,0.00,,,0.00,334.000000,,2013-02-25 17:52:00,
2013-02-25 10:01:00,54.0,36.0,-100.00,WSW,251,2.0,5.0,51,0.00,,,0.00,334.000000,,2013-02-25 18:01:00,
2013-02-25 10:12:00,54.0,36.0,-100.00,WSW,251,2.0,5.0,51,0.00,,,0.00,334.000000,,2013-02-25 18:12:00,
2013-02-25 10:33:00,60.0,33.0,-100.00,South,189,4.0,10.0,36,0.00,,,0.00,509.000000,,2013-02-25 18:33:00,
2013-02-25 10:42:00,60.0,33.0,-100.00,South,189,4.0,10.0,36,0.00,,,0.00,509.000000,,2013-02-25 18:42:00,
2013-02-25 10:52:00,60.0,33.0,-100.00,South,189,4.0,10.0,36,0.00,,,0.00,509.000000,,2013-02-25 18:52:00,
2013-02-25 11:01:00,60.0,33.0,-100.00,South,189,4.0,10.0,36,0.00,,,0.00,509.000000,,2013-02-25 19:01:00,
2013-02-25 11:11:00,60.0,33.0,-100.00,South,189,4.0,10.0,36,0.00,,,0.00,509.000000,,2013-02-25 19:11:00,
2013-02-25 11:42:00,61.0,33.0,-100.00,SW,219,6.0,10.0,35,0.00,,,0.00,636.000000,,2013-02-25 19:42:00,
2013-02-25 11:52:00,61.0,33.0,-100.00,SW,219,6.0,10.0,35,0.00,,,0.00,636.000000,,2013-02-25 19:52:00,
2013-02-25 12:01:00,61.0,33.0,-100.00,SW,219,6.0,10.0,35,0.00,,,0.00,636.000000,,2013-02-25 20:01:00,
2013-02-25 12:11:00,61.0,33.0,-100.00,SW,219,6.0,10.0,35,0.00,,,0.00,636.000000,,2013-02-25 20:11:00,
2013-02-25 12:32:00,61.0,32.0,-100.00,WSW,248,7.0,12.0,33,0.00,,,0.00,707.000000,,2013-02-25 20:32:00,
2013-02-25 12:42:00,61.0,32.0,-100.00,WSW,248,7.0,12.0,33,0.00,,,0.00,707.000000,,2013-02-25 20:42:00,
2013-02-25 12:52:00,61.0,32.0,-100.00,WSW,248,7.0,12.0,33,0.00,,,0.00,707.000000,,2013-02-25 20:52:00,
2013-02-25 13:01:00,61.0,32.0,-100.00,WSW,248,7.0,12.0,33,0.00,,,0.00,707.000000,,2013-02-25 21:01:00,
2013-02-25 13:11:00,61.0,32.0,-100.00,WSW,248,7.0,12.0,33,0.00,,,0.00,707.000000,,2013-02-25 21:11:00,
2013-02-25 13:32:00,63.0,33.0,-100.00,WNW,293,4.0,11.0,32,0.00,,,0.00,712.000000,,2013-02-25 21:32:00,
2013-02-25 13:42:00,63.0,33.0,-100.00,WNW,293,4.0,11.0,32,0.00,,,0.00,712.000000,,2013-02-25 21:42:00,
2013-02-25 13:52:00,63.0,33.0,-100.00,WNW,293,4.0,11.0,32,0.00,,,0.00,712.000000,,2013-02-25 21:52:00,
2013-02-25 14:01:00,63.0,33.0,-100.00,WNW,293,4.0,11.0,32,0.00,,,0.00,712.000000,,2013-02-25 22:01:00,
2013-02-25 14:11:00,63.0,33.0,-100.00,WNW,293,4.0,11.0,32,0.00,,,0.00,712.000000,,2013-02-25 22:11:00,
2013-02-25 14:32:00,63.0,35.0,-100.00,West,276,6.0,12.0,35,0.00,,,0.00,661.000000,,2013-02-25 22:32:00,
2013-02-25 14:42:00,63.0,35.0,-100.00,West,276,6.0,12.0,35,0.00,,,0.00,661.000000,,2013-02-25 22:42:00,
2013-02-25 14:52:00,63.0,35.0,-100.00,West,276,6.0,12.0,35,0.00,,,0.00,661.000000,,2013-02-25 22:52:00,
2013-02-25 15:01:00,63.0,35.0,-100.00,West,276,6.0,12.0,35,0.00,,,0.00,661.000000,,2013-02-25 23:01:00,
2013-02-25 15:11:00,63.0,35.0,-100.00,West,276,6.0,12.0,35,0.00,,,0.00,661.000000,,2013-02-25 23:11:00,
2013-02-25 15:32:00,64.0,34.0,-100.00,NW,323,6.0,10.0,33,0.00,,,0.00,555.000000,,2013-02-25 23:32:00,
2013-02-25 15:42:00,64.0,34.0,-100.00,NW,323,6.0,10.0,33,0.00,,,0.00,555.000000,,2013-02-25 23:42:00,
2013-02-25 15:52:00,64.0,34.0,-100.00,NW,323,6.0,10.0,33,0.00,,,0.00,555.000000,,2013-02-25 23:52:00,
2013-02-25 16:01:00,64.0,34.0,-100.00,NW,323,6.0,10.0,33,0.00,,,0.00,555.000000,,2013-02-26 00:01:00,
2013-02-25 16:11:00,64.0,34.0,-100.00,NW,323,6.0,10.0,33,0.00,,,0.00,555.000000,,2013-02-26 00:11:00,
2013-02-25 16:32:00,64.0,29.0,-100.00,NNW,336,5.0,11.0,27,0.00,,,0.00,402.000000,,2013-02-26 00:32:00,
2013-02-25 16:42:00,64.0,29.0,-100.00,NNW,336,5.0,11.0,27,0.00,,,0.00,402.000000,,2013-02-26 00:42:00,
2013-02-25 16:52:00,64.0,29.0,-100.00,NNW,336,5.0,11.0,27,0.00,,,0.00,402.000000,,2013-02-26 00:52:00,
2013-02-25 17:01:00,64.0,29.0,-100.00,NNW,336,5.0,11.0,27,0.00,,,0.00,402.000000,,2013-02-26 01:01:00,
2013-02-25 17:11:00,64.0,29.0,-100.00,NNW,336,5.0,11.0,27,0.00,,,0.00,402.000000,,2013-02-26 01:11:00,
2013-02-25 17:32:00,62.0,30.0,-100.00,NW,319,4.0,11.0,30,0.00,,,0.00,211.000000,,2013-02-26 01:32:00,
2013-02-25 17:42:00,62.0,30.0,-100.00,NW,319,4.0,11.0,30,0.00,,,0.00,211.000000,,2013-02-26 01:42:00,
2013-02-25 17:52:00,62.0,30.0,-100.00,NW,319,4.0,11.0,30,0.00,,,0.00,211.000000,,2013-02-26 01:52:00,
2013-02-25 18:01:00,62.0,30.0,-100.00,NW,319,4.0,11.0,30,0.00,,,0.00,211.000000,,2013-02-26 02:01:00,
2013-02-25 18:11:00,62.0,30.0,-100.00,NW,319,4.0,11.0,30,0.00,,,0.00,211.000000,,2013-02-26 02:11:00,
2013-02-25 18:32:00,56.0,31.0,-100.00,ENE,59,3.0,7.0,39,0.00,,,0.00,35.000000,,2013-02-26 02:32:00,
2013-02-25 18:42:00,56.0,31.0,-100.00,ENE,59,3.0,7.0,39,0.00,,,0.00,35.000000,,2013-02-26 02:42:00,
2013-02-25 18:52:00,56.0,31.0,-100.00,ENE,59,3.0,7.0,39,0.00,,,0.00,35.000000,,2013-02-26 02:52:00,
2013-02-25 19:01:00,56.0,31.0,-100.00,ENE,59,3.0,7.0,39,0.00,,,0.00,35.000000,,2013-02-26 03:01:00,
2013-02-25 19:11:00,56.0,31.0,-100.00,ENE,59,3.0,7.0,39,0.00,,,0.00,35.000000,,2013-02-26 03:11:00,
2013-02-25 19:32:00,49.0,29.0,-100.00,ENE,60,3.0,5.0,46,0.00,,,0.00,0.000000,,2013-02-26 03:32:00,
2013-02-25 19:42:00,49.0,29.0,-100.00,ENE,60,3.0,5.0,46,0.00,,,0.00,0.000000,,2013-02-26 03:42:00,
2013-02-25 19:52:00,49.0,29.0,-100.00,ENE,60,3.0,5.0,46,0.00,,,0.00,0.000000,,2013-02-26 03:52:00,
2013-02-25 20:01:00,49.0,29.0,-100.00,ENE,60,3.0,5.0,46,0.00,,,0.00,0.000000,,2013-02-26 04:01:00,
2013-02-25 20:11:00,49.0,29.0,-100.00,ENE,60,3.0,5.0,46,0.00,,,0.00,0.000000,,2013-02-26 04:11:00,
2013-02-25 20:42:00,41.0,31.0,-100.00,ENE,75,5.0,6.0,67,0.00,,,0.00,0.000000,,2013-02-26 04:42:00,
2013-02-25 20:52:00,41.0,31.0,-100.00,ENE,75,5.0,6.0,67,0.00,,,0.00,0.000000,,2013-02-26 04:52:00,
2013-02-25 21:01:00,41.0,31.0,-100.00,ENE,75,5.0,6.0,67,0.00,,,0.00,0.000000,,2013-02-26 05:01:00,
2013-02-25 21:32:00,38.0,30.0,-100.00,ENE,63,5.0,7.0,74,0.00,,,0.00,0.000000,,2013-02-26 05:32:00,
2013-02-25 21:43:00,38.0,30.0,-100.00,ENE,63,5.0,7.0,74,0.00,,,0.00,0.000000,,2013-02-26 05:43:00,
2013-02-25 21:52:00,38.0,30.0,-100.00,ENE,63,5.0,7.0,74,0.00,,,0.00,0.000000,,2013-02-26 05:52:00,
2013-02-25 22:01:00,38.0,30.0,-100.00,ENE,63,5.0,7.0,74,0.00,,,0.00,0.000000,,2013-02-26 06:01:00,
2013-02-25 22:32:00,39.0,29.0,-100.00,East,81,4.0,8.0,67,-99.99,,,0.00,0.000000,,2013-02-26 06:32:00,
2013-02-25 22:42:00,39.0,29.0,-100.00,East,81,4.0,8.0,67,-99.99,,,0.00,0.000000,,2013-02-26 06:42:00,
2013-02-25 22:52:00,39.0,29.0,-100.00,East,81,4.0,8.0,67,-99.99,,,0.00,0.000000,,2013-02-26 06:52:00,
2013-02-25 23:01:00,39.0,29.0,-100.00,East,81,4.0,8.0,67,-99.99,,,0.00,0.000000,,2013-02-26 07:01:00,
2013-02-25 23:11:00,39.0,29.0,-100.00,East,81,4.0,8.0,67,-99.99,,,0.00,0.000000,,2013-02-26 07:11:00,
2013-02-25 23:32:00,38.0,30.0,-100.00,ENE,74,6.0,7.0,72,0.00,,,0.00,0.000000,,2013-02-26 07:32:00,
2013-02-25 23:42:00,38.0,30.0,-100.00,ENE,74,6.0,7.0,72,0.00,,,0.00,0.000000,,2013-02-26 07:42:00,
2013-02-25 23:52:00,38.0,30.0,-100.00,ENE,74,6.0,7.0,72,0.00,,,0.00,0.000000,,2013-02-26 07:52:00,